This demonstration page uses our WeatherBlox Daily Observations layout. Learn more.

Left ArrowRight Arrow

Hourly Observations for May 3, 2016

Temp ( °F °C ) Dew Point ( °F °C ) Humidity (%) Winds ( mph kmh ) Pressure ( in mb ) Visibility ( mi km ) Precip ( " mm )
12:11 am 00:11 Cloudy 56 13.3 52 11.1 87 87 N N/A 29.97 1015 10 16 N/A
12:53 am 00:53 Cloudy 56 13.3 51 10.6 84 84 NNE 7 11 29.93 1014 10 16 N/A
1:10 am 01:10 Cloudy 55 12.8 51 10.6 87 87 NNE 6 9 29.94 1014 10 16 N/A
1:21 am 01:21 Cloudy 55 12.8 51 10.6 87 87 N 6 9 29.94 1014 10 16 N/A
1:53 am 01:53 Cloudy 54 12.2 51 10.6 90 90 N 3 6 29.93 1013 10 16 N/A
2:53 am 02:53 Cloudy 54 12.2 51 10.6 90 90 N 3 6 29.92 1013 10 16 N/A
3:53 am 03:53 Cloudy 54 12.2 50 10 87 87 N 6 9 29.90 1013 10 16 N/A
4:33 am 04:33 Cloudy 54 12.2 50 10 87 87 NNE 3 6 29.94 1014 10 16 N/A
4:41 am 04:41 Cloudy 53 11.7 50 10 89 89 NNE 3 6 29.94 1014 10 16 N/A
4:53 am 04:53 Cloudy 54 12.2 50 10 87 87 ENE 3 6 29.91 1013 10 16 N/A
5:53 am 05:53 Cloudy 54 12.2 49 9.4 83 83 N N/A 29.91 1013 10 16 N/A
6:53 am 06:53 Cloudy 53 11.7 49 9.4 86 86 NNE 6 9 29.91 1013 10 16 N/A
7:53 am 07:53 Cloudy 53 11.7 48 8.9 83 83 NNE 7 11 29.92 1013 10 16 N/A
8:09 am 08:09 Cloudy 53 11.7 48 8.9 83 83 N 5 7 29.97 1015 10 16 N/A
8:53 am 08:53 Cloudy 54 12.2 48 8.9 80 80 NNE 6 9 29.92 1013 10 16 N/A
9:53 am 09:53 Cloudy 55 12.8 48 8.9 77 77 N 5 7 29.92 1013 10 16 N/A
10:53 am 10:53 Cloudy 56 13.3 49 9.4 77 77 NNW 7 11 29.93 1013 10 16 N/A
11:53 am 11:53 Cloudy 56 13.3 48 8.9 75 75 N 6 9 29.93 1013 10 16 N/A
12:53 pm 12:53 Cloudy 56 13.3 49 9.4 77 77 N 6 9 29.92 1013 10 16 N/A
1:53 pm 13:53 Cloudy 55 12.8 49 9.4 80 80 NW 10 17 29.93 1013 10 16 N/A
2:38 pm 14:38 Cloudy 57 13.9 48 8.9 72 72 VRB 6 9 29.91 1013 10 16 N/A
2:53 pm 14:53 Cloudy 58 14.4 47 8.3 67 67 NNE 8 13 29.91 1013 10 16 N/A
3:11 pm 15:11 Cloudy 58 14.4 48 8.9 70 70 NNE 9 15 29.91 1013 10 16 N/A
3:53 pm 15:53 Cloudy 59 15 48 8.9 67 67 VRB 6 9 29.89 1012 10 16 N/A
4:53 pm 16:53 Cloudy 59 15 48 8.9 67 67 NW 5 7 29.89 1012 10 16 N/A
5:53 pm 17:53 Cloudy 59 15 48 8.9 67 67 WNW 8 13 29.88 1012 10 16 N/A
6:53 pm 18:53 Cloudy 59 15 47 8.3 64 64 NW 8 13 29.87 1012 10 16 N/A
7:53 pm 19:53 Cloudy 58 14.4 48 8.9 70 70 W 5 7 29.87 1011 10 16 N/A
8:53 pm 20:53 Cloudy 56 13.3 49 9.4 77 77 W 3 6 29.87 1012 10 16 N/A
9:53 pm 21:53 Cloudy 56 13.3 49 9.4 77 77 N N/A 29.87 1012 10 16 N/A
10:53 pm 22:53 Clear 52 11.1 48 8.9 86 86 W 3 6 29.87 1012 10 16 N/A
11:53 pm 23:53 Clear 49 9.4 48 8.9 97 97 N N/A 29.85 1011 9 14 N/A

Powered by AerisWeather